Vertical_Velocity
-6 -5 -0 1 -2 -1 4 5 3 -4 4 -2 -2 1 -9 3 -2 -2 4 1 -1 2 1 2 0 0 -1 -1 3 1 0 1 -1 1 2 2 0 -1 1 -1 -1 1 3
-3 -5 -6 0 0 -1 3 5 2 2 -2 4 -1 0 1 -6 4 6 6 -2 1 2 -1 0 -1 -2 0 1 0 0 -1 0 1 -0 2 -1 1 -1 0 -0 1 2 0
-7 -4 0 0 8 -1 -1 9 4 3 -0 -1 10 3 9 3 4 -1 -1 -4 7 4 -1 1 -1 -1 2 -2 1 3 1 1 -0 1 -2 -0 0 -1 0 1 1 0 1
1 -1 -2 -2 -1 -4 6 2 4 6 2 0 0 -1 -4 -6 -15 -12 -2 0 4 1 -1 6 6 2 4 2 7 4 2 2 1 2 -1 2 2 -1 -2 -0 1 -2 1
2 0 -0 2 6 3 0 -0 -0 -0 1 6 -0 3 4 9 4 -1 7 3 2 -1 -1 3 -0 4 4 5 3 4 -2 1 -1 -4 -1 1 1 -0 -1 1 -2 -1 0
4 4 5 5 5 5 3 1 6 2 4 2 -0 -2 7 1 4 8 4 1 -1 1 -1 4 2 2 2 -0 -0 2 4 -0 0 -5 4 -5 3 -1 -0 1 2 0 3
-1 -1 -1 -2 -0 -1 1 3 0 2 7 3 2 -2 -2 2 8 6 0 -2 -5 -7 -2 3 1 4 5 5 -1 -1 7 2 1 -0 -2 4 -3 1 0 -2 0 -3 -3
0 -2 -3 -3 -2 -1 -1 -2 -1 -2 1 5 4 6 6 3 0 1 0 4 5 8 7 4 5 7 2 1 1 -1 7 3 5 -1 2 5 -4 4 2 1 1 -1 -1
-2 -4 -2 -2 -4 -5 -5 -4 -3 0 3 1 -1 1 -0 -4 -5 6 6 3 -1 4 4 3 4 1 3 1 1 2 4 1 1 2 -3 -1 -1 1 -2 -1 -1 2 0
-1 -1 -3 -4 -3 -4 -5 -2 1 -4 -2 1 1 1 1 -1 0 -0 3 6 5 3 5 3 1 1 1 1 4 4 5 0 1 5 2 -5 -1 -0 -1 -1 -2 -2 3
-2 -4 -4 -3 -3 -2 -3 -4 -5 -4 -1 2 1 1 0 -2 -2 -0 3 7 8 4 6 3 0 2 2 3 4 5 3 6 2 0 -1 -0 2 -1 -1 -3 1 -1 1
2 1 -1 -1 -3 -4 -4 -3 -5 -1 2 0 -1 3 3 0 1 4 4 4 4 6 3 1 4 7 5 7 9 6 1 -0 1 1 5 2 4 -0 -3 1 1 -3 2
-3 -3 -2 -4 -4 -4 -4 -6 -1 -2 0 1 1 -0 2 4 1 4 6 1 5 4 3 4 6 4 6 5 0 2 -1 -2 -7 -7 9 2 0 -1 -1 -1 0 -2 -1
1 -0 0 -2 -2 -5 -2 -3 -3 0 1 3 4 2 3 7 2 5 4 4 3 4 3 7 6 3 3 5 5 -4 -2 -6 -5 -5 4 -2 4 1 -1 -2 -3 -3 -1
-2 -4 -2 2 -1 6 -1 -4 -2 -0 -3 0 5 8 2 5 1 4 -0 2 5 3 10 2 4 1 -0 -1 0 0 -5 -7 -1 -8 3 -1 0 0 -3 -4 -2 1 1
-1 -1 2 4 0 -0 -4 1 3 -1 -0 1 0 4 1 -2 -0 1 1 4 3 2 5 2 -0 -2 6 -0 -9 1 -4 -1 3 3 -0 -5 4 -2 -0 1 1 3 2
-0 -2 -2 -1 4 -5 -1 -3 -1 -2 1 -3 0 2 -0 4 2 5 2 2 8 7 -1 2 -5 -1 2 6 -12 5 -7 -1 -6 4 1 0 -1 0 -3 -2 2 1 -4
0 0 0 -3 -1 -6 -4 -2 5 -2 -0 1 -5 -1 0 3 -1 -1 -3 -2 -7 2 1 2 0 2 -9 -8 6 2 -5 -2 7 -2 -2 -2 2 -3 -1 3 -4 -2 -2
-1 -1 0 -2 -3 -1 -2 4 2 5 4 -5 -8 -2 1 2 2 -5 4 -4 -3 2 -7 -8 1 -6 5 1 1 -2 3 2 -3 -2 -1 1 -2 3 -5 1 2 -3 -4
-1 1 2 1 -2 0 0 3 3 -0 1 2 2 2 -0 2 -0 2 8 -3 6 -4 -6 2 2 1 -1 0 1 -2 -4 -2 -2 1 6 -1 -5 -4 -0 4 -2 -4 -2
0 -2 -0 1 -3 0 0 -1 0 2 1 4 2 3 2 -3 3 0 -9 3 -15 -7 2 4 -2 -0 -0 -2 -4 -4 -1 -0 4 2 -4 -2 -1 -1 -0 1 0 1 2
1 -1 1 1 -1 -3 1 1 -1 1 1 3 2 3 2 5 -2 -2 0 -6 1 1 3 3 -1 -3 -3 0 3 2 2 1 -4 -3 -1 -1 -1 -0 1 -0 -0 -0 -1
2 -1 2 -1 1 -1 4 -1 -0 -0 0 1 1 -0 -0 -1 -1 -2 -2 -3 1 2 -2 -2 -3 -1 1 3 3 1 -0 -1 -2 -1 -1 1 1 -1 -1 -0 -1 -1 -1
-1 -2 -1 -1 -2 1 0 1 -3 4 5 3 1 -1 -1 -4 -3 -1 1 2 2 -1 -1 -1 1 3 2 0 -1 -1 -1 -0 1 -0 2 -0 -1 -0 -2 -1 2 1 -1
-3 -1 -2 -2 -3 -2 3 1 -0 2 -1 -1 -0 -2 -1 -1 -2 -1 -2 -1 1 0 -1 0 -0 -0 -1 -1 -0 -0 -1 -1 -0 -3 -1 -1 -0 -1 1 1 -1 0 0
-1 0 -1 -3 -2 0 0 1 0 1 -0 -2 -2 -1 -2 -3 -1 0 0 1 -0 -1 -0 0 0 -2 -1 -1 -0 0 0 -1 -2 -0 -3 -2 -2 -2 -2 -2 -2 1 1
Height
1457 1461 1462 1465 1469 1470 1471 1475 1479 1482 1484 1485 1487 1491 1495 1497 1499 1501 1504 1506 1509 1510 1513 1516 1518 1521 1523 1526 1529 1529 1531 1531 1532 1533 1533 1532 1531 1531 1531 1531 1530 1531 1529
1450 1453 1458 1460 1461 1462 1464 1467 1470 1475 1477 1479 1482 1484 1489 1492 1494 1496 1500 1501 1503 1505 1508 1511 1513 1516 1520 1521 1523 1525 1527 1528 1529 1529 1530 1530 1529 1527 1527 1528 1527 1526 1527
1442 1445 1450 1453 1455 1456 1458 1460 1463 1467 1470 1474 1476 1478 1481 1485 1488 1489 1493 1496 1498 1500 1504 1506 1509 1512 1514 1516 1518 1520 1522 1524 1525 1526 1527 1525 1523 1524 1524 1524 1524 1525 1524
1437 1439 1441 1443 1444 1448 1452 1455 1458 1460 1462 1466 1466 1468 1470 1473 1479 1484 1486 1490 1491 1494 1499 1503 1504 1507 1509 1511 1512 1514 1517 1518 1520 1521 1522 1522 1521 1521 1521 1521 1520 1521 1520
1434 1436 1438 1439 1440 1442 1446 1449 1451 1453 1455 1457 1458 1460 1462 1467 1472 1477 1480 1483 1485 1489 1493 1496 1499 1501 1503 1507 1508 1509 1511 1513 1516 1516 1518 1518 1517 1516 1517 1516 1516 1516 1516
1438 1438 1438 1437 1437 1439 1440 1442 1445 1447 1449 1451 1453 1455 1457 1460 1464 1468 1474 1478 1480 1483 1486 1488 1491 1495 1498 1500 1504 1506 1507 1508 1509 1510 1513 1512 1512 1511 1512 1514 1512 1512 1512
1440 1439 1438 1438 1438 1438 1438 1439 1440 1443 1445 1446 1447 1449 1451 1455 1458 1461 1465 1469 1472 1475 1478 1480 1483 1487 1491 1495 1497 1502 1503 1503 1504 1505 1507 1507 1507 1507 1507 1508 1507 1506 1505
1442 1442 1441 1441 1439 1438 1437 1437 1438 1439 1440 1441 1442 1444 1445 1448 1450 1454 1456 1460 1463 1467 1471 1474 1477 1480 1485 1490 1493 1496 1498 1498 1500 1501 1501 1502 1503 1503 1503 1503 1503 1500 1498
1442 1441 1442 1441 1439 1438 1437 1436 1435 1435 1436 1436 1436 1437 1439 1441 1443 1446 1449 1451 1456 1462 1465 1468 1471 1476 1480 1484 1487 1489 1492 1494 1496 1497 1496 1498 1498 1499 1499 1499 1499 1497 1493
1440 1440 1440 1438 1436 1434 1432 1431 1430 1429 1429 1429 1430 1431 1433 1434 1436 1439 1442 1445 1449 1454 1458 1462 1466 1471 1476 1479 1482 1484 1488 1489 1492 1493 1494 1494 1495 1494 1495 1494 1493 1493 1491
1439 1437 1436 1434 1432 1429 1427 1423 1421 1420 1420 1421 1423 1425 1427 1428 1429 1431 1435 1440 1444 1448 1453 1457 1463 1468 1470 1473 1477 1481 1483 1486 1489 1490 1490 1491 1490 1490 1491 1491 1489 1488 1486
1436 1434 1432 1430 1427 1424 1421 1416 1412 1409 1410 1412 1415 1419 1421 1422 1423 1425 1429 1434 1440 1444 1449 1455 1460 1463 1466 1470 1474 1477 1479 1485 1488 1488 1488 1487 1487 1487 1486 1485 1483 1483 1482
1432 1430 1428 1425 1422 1418 1414 1408 1403 1400 1402 1404 1409 1413 1416 1418 1420 1422 1426 1431 1437 1441 1446 1450 1455 1459 1464 1469 1472 1474 1478 1483 1485 1486 1487 1484 1483 1482 1481 1480 1478 1477 1475
1430 1428 1427 1425 1422 1417 1411 1405 1399 1396 1398 1401 1404 1409 1413 1416 1418 1422 1426 1431 1435 1439 1443 1447 1452 1458 1464 1468 1470 1472 1475 1478 1479 1484 1486 1483 1480 1477 1475 1475 1473 1471 1468
1429 1428 1426 1423 1419 1414 1409 1405 1401 1398 1399 1401 1403 1405 1411 1416 1419 1422 1425 1430 1433 1438 1442 1449 1453 1459 1464 1467 1469 1471 1474 1476 1477 1481 1480 1479 1477 1473 1470 1469 1467 1465 1462
1427 1426 1424 1421 1417 1412 1410 1408 1404 1400 1401 1402 1405 1408 1411 1416 1420 1422 1426 1430 1435 1439 1444 1450 1454 1459 1465 1467 1468 1466 1472 1476 1477 1477 1475 1474 1472 1468 1466 1464 1463 1461 1457
1425 1424 1422 1420 1418 1414 1412 1410 1408 1406 1405 1406 1408 1411 1414 1416 1421 1424 1429 1434 1439 1442 1447 1452 1457 1461 1464 1465 1465 1468 1470 1473 1475 1473 1471 1470 1466 1463 1461 1459 1457 1454 1452
1424 1423 1421 1421 1419 1418 1416 1414 1412 1411 1410 1410 1413 1415 1418 1420 1424 1428 1432 1437 1444 1448 1452 1455 1460 1458 1464 1464 1465 1468 1470 1471 1470 1468 1466 1464 1461 1458 1456 1453 1450 1448 1445
1422 1421 1421 1421 1421 1421 1420 1419 1416 1414 1414 1415 1418 1421 1423 1424 1427 1433 1436 1443 1447 1450 1451 1457 1460 1462 1465 1467 1468 1468 1469 1468 1467 1465 1463 1459 1455 1453 1451 1449 1445 1441 1438
1421 1421 1422 1423 1423 1423 1423 1423 1420 1419 1419 1418 1420 1422 1426 1429 1433 1437 1441 1445 1448 1452 1456 1459 1459 1463 1466 1467 1467 1466 1466 1465 1463 1461 1458 1454 1451 1448 1447 1444 1438 1433 1431
1420 1421 1423 1423 1424 1425 1425 1425 1424 1424 1424 1425 1425 1427 1431 1436 1439 1441 1446 1448 1453 1457 1460 1462 1463 1464 1466 1466 1465 1465 1463 1461 1459 1456 1453 1450 1446 1444 1441 1437 1432 1428 1426
1421 1422 1424 1424 1425 1427 1428 1427 1428 1428 1430 1431 1432 1435 1438 1441 1443 1447 1450 1454 1458 1461 1462 1462 1464 1465 1465 1465 1464 1462 1460 1458 1455 1451 1448 1445 1441 1438 1434 1431 1427 1424 1421
1422 1424 1425 1426 1427 1428 1430 1430 1431 1433 1435 1437 1439 1441 1444 1447 1450 1452 1455 1458 1460 1462 1462 1462 1463 1464 1464 1462 1461 1459 1457 1454 1451 1447 1444 1440 1436 1432 1429 1426 1424 1421 1418
1424 1425 1427 1428 1429 1430 1432 1435 1436 1438 1440 1442 1444 1446 1448 1450 1452 1455 1458 1461 1462 1462 1462 1462 1463 1463 1462 1460 1458 1456 1453 1450 1446 1443 1440 1435 1432 1428 1426 1424 1422 1418 1415
1425 1427 1430 1430 1432 1434 1436 1438 1441 1443 1445 1447 1448 1450 1452 1454 1456 1459 1460 1461 1461 1462 1462 1462 1462 1461 1460 1457 1455 1452 1449 1446 1443 1439 1435 1432 1428 1426 1423 1420 1418 1415 1411
1426 1429 1432 1434 1435 1437 1440 1442 1445 1447 1449 1451 1452 1454 1455 1457 1459 1460 1461 1462 1462 1462 1461 1461 1460 1458 1456 1454 1452 1449 1446 1442 1438 1435 1432 1429 1426 1423 1420 1417 1414 1411 1407